TimeCDT,TemperatureF,Dew PointF,Humidity,Sea Level PressureIn,VisibilityMPH,Wind Direction,Wind SpeedMPH,Gust SpeedMPH,PrecipitationIn,Events,Conditions,WindDirDegrees,DateUTC
12:53 AM,64.9,54.0,68,30.18,10.0,South,5.8,-,N/A,,Clear,180,2013-08-24 05:53:00
1:53 AM,63.0,54.0,72,30.18,10.0,South,4.6,-,N/A,,Clear,170,2013-08-24 06:53:00
2:53 AM,59.0,54.0,83,30.19,10.0,Calm,Calm,-,N/A,,Clear,0,2013-08-24 07:53:00
3:53 AM,57.9,54.0,87,30.20,10.0,Calm,Calm,-,N/A,,Clear,0,2013-08-24 08:53:00
4:53 AM,55.9,54.0,93,30.22,10.0,Calm,Calm,-,N/A,,Clear,0,2013-08-24 09:53:00
5:53 AM,55.9,53.1,90,30.23,10.0,Calm,Calm,-,N/A,,Clear,0,2013-08-24 10:53:00
6:53 AM,57.0,54.0,89,30.24,10.0,Calm,Calm,-,N/A,,Clear,0,2013-08-24 11:53:00
7:53 AM,64.9,57.0,75,30.25,10.0,SSE,5.8,-,N/A,,Clear,160,2013-08-24 12:53:00
8:53 AM,69.1,59.0,70,30.25,10.0,South,8.1,-,N/A,,Clear,180,2013-08-24 13:53:00
9:53 AM,72.0,59.0,64,30.25,10.0,South,9.2,-,N/A,,Clear,190,2013-08-24 14:53:00
10:53 AM,75.0,62.1,64,30.24,10.0,South,10.4,-,N/A,,Clear,170,2013-08-24 15:53:00
11:53 AM,78.1,63.0,60,30.23,10.0,South,8.1,-,N/A,,Clear,170,2013-08-24 16:53:00
12:53 PM,80.1,64.9,60,30.21,10.0,South,10.4,-,N/A,,Partly Cloudy,170,2013-08-24 17:53:00
1:53 PM,82.0,64.9,56,30.21,10.0,South,11.5,-,N/A,,Scattered Clouds,170,2013-08-24 18:53:00
2:53 PM,82.0,64.9,56,30.19,10.0,South,12.7,17.3,N/A,,Partly Cloudy,170,2013-08-24 19:53:00
3:53 PM,82.0,64.9,56,30.17,10.0,SSE,13.8,-,N/A,,Partly Cloudy,160,2013-08-24 20:53:00
4:53 PM,82.0,66.0,58,30.16,10.0,South,11.5,-,N/A,,Partly Cloudy,180,2013-08-24 21:53:00
5:53 PM,82.0,64.9,56,30.16,10.0,South,13.8,-,N/A,,Partly Cloudy,170,2013-08-24 22:53:00
6:53 PM,80.1,64.9,60,30.16,10.0,South,9.2,-,N/A,,Clear,180,2013-08-24 23:53:00
7:53 PM,78.1,66.0,66,30.16,10.0,South,9.2,-,N/A,,Clear,170,2013-08-25 00:53:00
8:53 PM,77.0,66.0,69,30.16,10.0,South,8.1,-,N/A,,Clear,180,2013-08-25 01:53:00
9:53 PM,75.9,66.0,71,30.17,10.0,South,9.2,-,N/A,,Clear,180,2013-08-25 02:53:00
10:53 PM,75.0,66.0,73,30.16,10.0,South,10.4,-,N/A,,Clear,180,2013-08-25 03:53:00
11:53 PM,73.9,66.0,76,30.16,10.0,South,11.5,-,N/A,,Clear,190,2013-08-25 04:53:00